Miscellaneous Local Product
Issued by NWS North Platte, NE

Home | Current Version | Previous Version | Text Only | Print | Product List | Glossary On
Versions: 1 2 3 4 5 6 7 8 9 10 11 12 13 14 15 16 17 18 19 20 21 22 23 24 25 26 27 28 29 30 31 32 33 34 35 36 37 38 39 40 41 42 43 44 45 46 47 48 49 50
000
AXUS43 KLBF 011010
MISLBF


WESTERN AND NORTH CENTRAL NEBRASKA HOURLY WEATHER ROUNDUP
NATIONAL WEATHER SERVICE NORTH PLATTE NE
500 AM CDT TUE SEP 01 2015

NOTE: "FAIR" INDICATES FEW OR NO CLOUDS BELOW 12,000 FEET WITH NO
SIGNIFICANT WEATHER AND/OR OBSTRUCTIONS TO VISIBILITY.

NOTE: STATIONS NOT REPORTING VARIABLES SUCH AS SKY/WEATHER OR
PRESSURE ARE PROVIDED BY THE NEBRASKA DEPARTMENT OF
ROADS...RAWS...AND APRS NETWORKS...AND ARE NOT UNDER
NATIONAL WEATHER SERVICE QUALITY CONTROL.

...OBSERVATIONS IN AND NEAR THE EASTERN PANHANDLE OF NEBRASKA...

CITY           SKY/WX    TMP DP  RH WIND       PRES   REMARKS
PINE RIDGE     CLEAR     64  52  64 W3        29.93S
CHADRON        PTCLDY    62  50  64 W6        29.91F
ALLIANCE       PTCLDY    60  52  74 W3        29.97F
SIDNEY         MOCLDY    59  53  80 NW9       30.02F
CRESCENT LAKE    N/A     64  56  77 W6          N/A
BIG SPRINGS      N/A     61  57  87 CALM        N/A
$$

...OBSERVATIONS IN NORTH CENTRAL NEBRASKA...

CITY           SKY/WX    TMP DP  RH WIND       PRES   REMARKS
VALENTINE      CLOUDY    60  58  92 CALM      29.91F
THEDFORD       CLOUDY    66  64  94 NW3       29.92R FOG
AINSWORTH      CLOUDY    66  64  94 CALM      29.90F
O`NEILL        CLOUDY    68  67  98 CALM      29.89F FOG
ORD            MOCLDY    67  64  90 CALM      29.89R
BROKEN BOW     CLOUDY    67  64  90 CALM      29.91R FOG
SPRINGVIEW       N/A     66  64  92 CALM        N/A
SARGENT          N/A     67  65  93 CALM        N/A
CHAMBERS         N/A     68  65  90 CALM        N/A
EWING            N/A     68  63  83 CALM        N/A
$$

...OBSERVATIONS IN SOUTHWEST NEBRASKA AND FAR NORTHEAST COLORADO...

CITY           SKY/WX    TMP DP  RH WIND       PRES   REMARKS
WRAY           CLOUDY   N/A N/A N/A SW5       30.00R
HOLYOKE        FAIR      63  61  94 W6        29.99R
IMPERIAL       MOCLDY    64  60  87 W12       29.95R
OGALLALA       MOCLDY    64  61  91 CALM      29.94S
NORTH PLATTE   CLOUDY    68  61  78 NW7       29.92R
MCCOOK         CLOUDY    69  64  84 CALM      29.91R
LEXINGTON      CLOUDY    70  58  66 SW7       29.92R
PAXTON           N/A     67  63  88 CALM        N/A
BRADY            N/A     68  64  88 CALM        N/A
CALLAWAY         N/A     65  64  95 SE5         N/A
$$

...OBSERVATIONS IN CENTRAL LINCOLN COUNTY AREA...

CITY           SKY/WX    TMP DP  RH WIND       PRES   REMARKS
N.P. AIRPORT   CLOUDY    68  61  78 NW7       29.92R
N.P. DOWNTOWN    N/A     70  64  81 CALM        N/A
N.P. SOUTHEAST   N/A     70  62  77 CALM        N/A
N.P. HILLCREST   N/A     68  63  84 CALM        N/A
$$

...SOME OBSERVATIONS FROM AROUND THE REGION...

CITY           SKY/WX    TMP DP  RH WIND       PRES   REMARKS
DENVER         PTCLDY    56  51  84 SE3       30.11S
LARAMIE        CLEAR     47  41  80 S9        30.22R
CHEYENNE       CLEAR     55  46  71 SW3       30.13S
SCOTTSBLUFF    PTCLDY    58  54  86 CALM      30.00R
RAPID CITY     CLEAR     55  54  96 CALM      29.90R
PIERRE         CLEAR     59  58  96 E3        29.87F
WINNER         FAIR      64  60  87 CALM      29.89F
SIOUX FALLS    CLOUDY    69  66  90 E3        29.89S
OMAHA          CLEAR     70  68  93 S8        29.92F
GRAND ISLAND   CLOUDY    70  61  73 S12       29.91S
KANSAS CITY    CLEAR     73  68  84 S10       30.00S
WICHITA        PTCLDY    69  63  81 S8        30.00S
HAYS           MOCLDY    73  57  56 S13       29.95F
LIBERAL        PTCLDY    66  52  59 S8        29.99S
GOODLAND       PTCLDY    63  60  90 SW7       30.01R
$$



USA.gov is the U.S. government's official web portal to all federal, state and local government web resources and services.